1324687828266,0.000157201
1324687888266,0.000157626
1324687948266,0.000155600
1324688008266,0.000157444
1324688068266,0.000157348
1324691428276,0.000155771
1324691488276,0.000156816
1324691548276,0.000156818
1324691608276,0.000156549
1324691668276,0.000155603
1324695028286,0.000156341
1324695088286,0.000157948
1324695148286,0.000155701
1324695208286,0.000156973
1324695268286,0.000156987
1324698628296,0.000155465
1324698688296,0.000156321
1324698748296,0.000156466
1324698808296,0.000160942
1324698868296,0.000157994
1324702228307,0.000159220
1324702288307,0.000158524
1324702348307,0.000159447
1324702408307,0.000158807
1324702468307,0.000161427
1324705828317,0.000157260
1324705888317,0.000157237
1324705948317,0.000158228
1324706008317,0.000159603
1324706068317,0.000160315
1324709428328,0.000158190
1324709488328,0.000158923
1324709548328,0.000157996
1324709608328,0.000155956
1324709668328,0.000156191
1324713028339,0.000154674
1324713088339,0.000156523
1324713148339,0.000157992
1324713208339,0.000155655
1324713268339,0.000157707
1324716628350,0.000156722
1324716688350,0.000158764
1324716748350,0.000158894
1324716808350,0.000159114
1324716868350,0.000157526
1324720228362,0.000156256
1324720288362,0.000155918
1324720348362,0.000158067
1324720408361,0.000155160
1324720468361,0.000155510
1324723828373,0.000155235
1324723888373,0.000155767
1324723948373,0.000154585
1324724008373,0.000154585
1324724068373,0.000155902
1324727428385,0.000158808
1324727488385,0.000161665
1324727548385,0.000160655
1324727608385,0.000160093
1324727668385,0.000160578
1324731028397,0.000156012
1324731088397,0.000154983
1324731148397,0.000156739
1324731208397,0.000156102
1324731268397,0.000155557
1324734628409,0.000156177
1324734688409,0.000155723
1324734748409,0.000155993
1324734808409,0.000155979
1324734868409,0.000155645
1324738228421,0.000157407
1324738288421,0.000156796
1324738348421,0.000156822
1324738408421,0.000156207
1324738468421,0.000155429
1324741828432,0.000159072
1324741888433,0.000159425
1324741948433,0.000160221
1324742008433,0.000160949
1324742068433,0.000159861
1324745428444,0.000156302
1324745488444,0.000158843
1324745548444,0.000161019
1324745608444,0.000162118
1324745668444,0.000161686
1324756228479,0.000158084
1324756288479,0.000157180
1324756348479,0.000158055
1324756408479,0.000159310
1324756468479,0.000157303
1324756528479,0.000158845
1324756588479,0.000156798
1324756648479,0.000158620
1324756708479,0.000156627
1324756768479,0.000156691
1324756828490,0.000156419
1324756888490,0.000157635
1324756948490,0.000158874
1324757008490,0.000158228
1324757068490,0.000160053
1324757128490,0.000160119
1324757188490,0.000158335
1324757248490,0.000159262
1324757308490,0.000161025
1324757368490,0.000161668
1324757428490,0.000158153
1324757488490,0.000159801
1324757548490,0.000158353
1324757608490,0.000156917
1324757668490,0.000157439
1324757728490,0.000156678
1324757788490,0.000156964
1324757848490,0.000157796
1324757908490,0.000155659
1324757968490,0.000158556
1324758028490,0.000157632
1324758088490,0.000157435
1324758148490,0.000156752
1324758208490,0.000157778
1324758268490,0.000156702
1324758328490,0.000156307
1324758388490,0.000155178
1324758448490,0.000156927
1324758508490,0.000157896
1324758568490,0.000156651
1324758628490,0.000158025
1324758688490,0.000159056
1324758748490,0.000156585
1324758808490,0.000157475
1324758868490,0.000158047
1324758928490,0.000157012
1324758988490,0.000158059
1324759048490,0.000156788
1324759108490,0.000158716
1324759168490,0.000158828
1324759228490,0.000158069
1324759288490,0.000156714
1324759348490,0.000156638
1324759408490,0.000159703
1324759468490,0.000160468
1324759528490,0.000160106
1324759588490,0.000158628
1324759648490,0.000161352
1324759708490,0.000157414
1324759768490,0.000159188
1324759828490,0.000159142
1324759888490,0.000159192
1324759948490,0.000158038
1324760008490,0.000159545
1324760068490,0.000160790
1324760128490,0.000161131
1324760188490,0.000162441
1324760248490,0.000160866
1324760308490,0.000159316
1324760368490,0.000158706
1324760428501,0.000160532
1324760488501,0.000158860
1324760548501,0.000159279
1324760608501,0.000158935
1324760668501,0.000158741
1324760728501,0.000161115
1324760788501,0.000161132
1324760848501,0.000161959
1324760908501,0.000160974
1324760968501,0.000160794
1324761028501,0.000159345
1324761088501,0.000159994
1324761148501,0.000160275
1324761208501,0.000158560
1324761268501,0.000158238
1324761328501,0.000158900
1324761388501,0.000157217
1324761448501,0.000159241
1324761508501,0.000159663
1324761568501,0.000159437
1324761628501,0.000160146
1324761688501,0.000159607
1324761748501,0.000159617
1324761808501,0.000161571
1324761868501,0.000160921
1324761928501,0.000160587
1324761988501,0.000158474
1324762048501,0.000157958
1324762108501,0.000157334
1324762168501,0.000157458
1324762228501,0.000158763
1324762288501,0.000158969
1324762348501,0.000159042
1324762408501,0.000158023
1324762468501,0.000159955
1324762528501,0.000161767
1324762588501,0.000162775
1324762648501,0.000161566
1324762708501,0.000160966
1324762768501,0.000160560
1324762828501,0.000160745
1324762888501,0.000161918
1324762948501,0.000161219
1324763008501,0.000159998
1324763068501,0.000159556
1324763128501,0.000158994
1324763188501,0.000157549
1324763248501,0.000160541
1324763308501,0.000158841
1324763368501,0.000158361
1324763428501,0.000159661
1324763488501,0.000158541
1324763548501,0.000159174
1324763608501,0.000159730
1324763668501,0.000159946
1324763728501,0.000157876
1324763788501,0.000159665
1324763848501,0.000158807
1324763908501,0.000157328
1324763968501,0.000159231
1324764028512,0.000162643
1324764088512,0.000161431
1324764148512,0.000161464
1324764208512,0.000159004
1324764268512,0.000158377
1324764328512,0.000159476
1324764388512,0.000160093
1324764448512,0.000161545
1324764508512,0.000160797
1324764568512,0.000159801
1324764628512,0.000160455
1324764688512,0.000161953
1324764748512,0.000161162
1324764808512,0.000161259
1324764868512,0.000159771
1324764928512,0.000162295
1324764988512,0.000160018
1324765048512,0.000160160
1324765108512,0.000159948
1324765168512,0.000160468
1324765228512,0.000162043
1324765288512,0.000162765
1324765348512,0.000161248
1324765408512,0.000163573
1324765468512,0.000163274
1324765528512,0.000164950
1324765588512,0.000162675
1324765648512,0.000164388
1324765708512,0.000161236
1324765768512,0.000162827
1324765828512,0.000162325
1324765888512,0.000160909
1324765948512,0.000161274
1324766008512,0.000160930
1324766068512,0.000160426
1324766128512,0.000159739
1324766188512,0.000160158
1324766248512,0.000162099
1324766308512,0.000161770
1324766368512,0.000160049
1324766428512,0.000161106
1324766488512,0.000159024
1324766548512,0.000159177
1324766608512,0.000158809
1324766668512,0.000158684
1324766728512,0.000158861
1324766788512,0.000159657
1324766848512,0.000157978
1324766908512,0.000159634
1324766968512,0.000159728
1324767028512,0.000159472
1324767088512,0.000160865
1324767148512,0.000159208
1324767208512,0.000162104
1324767268512,0.000162285
1324770628523,0.000158063
1324770688523,0.000159769
1324770748523,0.000161364
1324770808523,0.000159508
1324770868523,0.000159710
